TimeCDT,TemperatureF,Dew PointF,Humidity,Sea Level PressureIn,VisibilityMPH,Wind Direction,Wind SpeedMPH,Gust SpeedMPH,PrecipitationIn,Events,Conditions,WindDirDegrees,DateUTC
12:54 AM,69.1,57.0,65,30.14,10.0,East,9.2,-,N/A,,Clear,80,2013-08-24 05:54:00
1:54 AM,66.9,57.0,70,30.15,10.0,ENE,6.9,-,N/A,,Clear,70,2013-08-24 06:54:00
2:54 AM,66.9,57.0,70,30.17,10.0,East,9.2,-,N/A,,Clear,90,2013-08-24 07:54:00
3:54 AM,64.9,57.0,75,30.18,10.0,East,8.1,-,N/A,,Clear,80,2013-08-24 08:54:00
4:54 AM,64.0,57.0,78,30.18,10.0,East,3.5,-,N/A,,Clear,80,2013-08-24 09:54:00
5:54 AM,63.0,57.9,84,30.19,10.0,East,4.6,-,N/A,,Clear,80,2013-08-24 10:54:00
6:54 AM,64.0,59.0,84,30.21,10.0,ENE,5.8,-,N/A,,Clear,70,2013-08-24 11:54:00
7:54 AM,69.1,61.0,75,30.22,10.0,SE,4.6,-,N/A,,Clear,130,2013-08-24 12:54:00
8:54 AM,73.9,62.1,66,30.23,10.0,SE,4.6,-,N/A,,Clear,140,2013-08-24 13:54:00
9:54 AM,78.1,64.0,62,30.22,10.0,Variable,6.9,-,N/A,,Clear,0,2013-08-24 14:54:00
10:54 AM,82.0,64.9,56,30.22,10.0,South,9.2,-,N/A,,Clear,170,2013-08-24 15:54:00
11:54 AM,84.0,66.0,55,30.22,10.0,SSE,11.5,-,N/A,,Partly Cloudy,160,2013-08-24 16:54:00
12:54 PM,84.9,66.0,53,30.21,10.0,South,10.4,-,N/A,,Mostly Cloudy,190,2013-08-24 17:54:00
1:54 PM,86.0,64.9,49,30.20,10.0,SSW,8.1,-,N/A,,Scattered Clouds,200,2013-08-24 18:54:00
2:54 PM,88.0,64.0,45,30.18,10.0,SSW,8.1,-,N/A,,Scattered Clouds,200,2013-08-24 19:54:00
3:54 PM,88.0,64.9,46,30.17,10.0,SSE,12.7,-,N/A,,Scattered Clouds,150,2013-08-24 20:54:00
4:54 PM,84.9,64.9,51,30.17,10.0,South,10.4,-,N/A,,Mostly Cloudy,190,2013-08-24 21:54:00
5:54 PM,86.0,64.9,49,30.17,10.0,South,9.2,-,N/A,,Clear,170,2013-08-24 22:54:00
6:54 PM,82.9,64.9,54,30.16,10.0,SSE,8.1,-,N/A,,Clear,160,2013-08-24 23:54:00
7:54 PM,80.1,66.0,62,30.17,10.0,SE,3.5,-,N/A,,Clear,130,2013-08-25 00:54:00
8:54 PM,78.1,66.0,66,30.18,10.0,SE,3.5,-,N/A,,Clear,140,2013-08-25 01:54:00
9:54 PM,75.9,66.0,71,30.19,10.0,SE,6.9,-,N/A,,Clear,140,2013-08-25 02:54:00
10:54 PM,75.9,66.0,71,30.19,10.0,SSE,4.6,-,N/A,,Clear,160,2013-08-25 03:54:00
11:54 PM,75.0,64.9,71,30.19,10.0,South,3.5,-,N/A,,Clear,170,2013-08-25 04:54:00